Location: Bush Observatory
(40.2653°N, 94.3194°W)
Time: 07:59:41
(UTC-05:00)

Daily predictions for brighter satellites

Satellite Brightness Start Highest point End
(mag) Time Altitude Azimuth Time Altitude Azimuth Time Altitude Azimuth
SL-24 R/B - RUBIN 2 4.2 20:57:31 10° SSW 21:02:48 74° ESE 21:08:51 10° NE
Cosmos 2237 Rocket 2.8 20:59:14 10° SSW 21:04:48 64° WNW 21:10:26 10° NNE
Resurs 01 Rocket 4.3 21:02:12 10° SW 21:05:31 20° W 21:08:52 10° NW
Atlas Centaur 2 3.9 21:03:36 10° SSW 21:09:31 25° SSE 21:15:58 10° ESE
GEOS 3 Rocket 4.0 21:04:42 10° SSE 21:09:56 67° WSW 21:15:10 10° NW
Cosmos 2278 Rocket 2.8 21:07:25 10° NNW 21:13:00 60° WSW 21:18:35 10° S
Cosmos 2228 3.8 21:13:03 10° N 21:17:10 37° ENE 21:21:15 10° SE
Cosmos 1025 Rocket 3.4 21:14:24 10° SSW 21:18:46 71° W 21:23:10 10° N
Cosmos 494 Rocket 4.0 21:13:59 10° S 21:19:00 62° ESE 21:24:03 10° NNE
Aureole 2 Rocket 3.3 21:16:53 10° S 21:20:35 36° ESE 21:24:01 10° NE
USA 186 3.0 21:18:13 10° S 21:20:59 36° W 21:23:35 10° NNW
COSMOS 2455 4.0 21:17:23 10° SSE 21:21:43 21° ESE 21:26:05 10° ENE
Cosmos 1892 Rocket 3.6 21:18:33 10° S 21:22:59 87° E 21:27:29 10° N
Cosmos 1939 Rocket 3.4 21:19:00 10° SSE 21:22:59 47° ENE 21:26:59 10° N
CZ-4 DEB 4.3 21:21:18 10° SSW 21:24:20 37° W 21:27:22 10° NNW
Cosmos 2219 Rocket 4.4 21:20:35 10° WSW 21:25:30 30° WNW 21:30:26 10° N
Cosmos 2369 Rocket 4.2 21:23:40 10° NNE 21:26:41 14° NE 21:29:41 10° E
SPOT 5 3.3 21:26:56 11° SE 21:30:54 39° ENE 21:34:57 10° N
Cosmos 1666 3.1 21:27:32 10° N 21:31:20 48° E 21:34:49 12° SSE
SL-16 R/B 2.3 21:26:10 10° SSW 21:31:50 86° WNW 21:37:31 10° NNE
Nimbus 7 Rocket 4.5 21:26:08 10° NNE 21:32:02 59° ESE 21:37:50 10° S
Lacrosse 5 rocket 2.6 21:31:32 10° WSW 21:35:13 42° NW 21:39:06 10° NNE
CZ-4 SHROUD 3.8 21:34:31 15° SE 21:36:54 42° ENE 21:39:55 10° N
Tsikada Rocket 4.3 21:35:15 10° SSE 21:41:21 49° E 21:47:27 10° NNE
Cosmos 1331 Rocket 4.2 21:36:40 10° NNW 21:41:53 72° WSW 21:47:00 10° S
Cosmos 1743 3.9 21:39:13 10° NNW 21:42:53 42° W 21:46:30 10° SSW
DEBRIS 2.6 21:37:51 10° WNW 21:43:39 79° NNE 21:45:18 20° ESE
Meteor 1-23 Rocket 4.4 21:40:59 10° SSW 21:46:36 77° W 21:52:20 10° N
Cosmos 1302 Rocket 4.0 21:45:58 10° NNW 21:51:13 81° ENE 21:55:30 16° SSE
Okean 2 3.9 21:47:37 10° SSW 21:51:46 62° W 21:55:56 10° N
Cosmos 2285 Rocket 4.2 21:45:38 10° NNW 21:51:57 76° WSW 21:58:06 11° S
ALOS 4.2 21:48:49 10° SSW 21:52:43 26° W 21:56:39 10° NW
MetOp-B 4.4 21:49:01 16° SE 21:53:12 55° ENE 21:58:26 10° N
SeaSat 1 2.4 21:50:09 16° SSE 21:54:06 80° ENE 21:59:03 10° NNW
GRACE-1 4.0 21:53:16 10° N 21:56:07 60° E 21:57:34 25° SSE
GRACE-2 3.9 21:53:42 10° N 21:56:33 60° E 21:57:58 25° SSE
Terra 3.8 21:56:20 11° E 21:58:34 15° ENE 22:01:10 10° NNE
CZ-4B R/B 3.7 21:54:09 10° NNE 21:59:05 50° E 22:03:35 13° S
Cosmos 2058 Rocket 4.0 21:55:16 10° NNW 21:59:28 46° W 22:03:37 10° SSW
Cosmos 1603 3.7 21:55:07 10° S 22:00:39 63° ESE 22:06:11 10° NNE
UNK 4.2 21:55:58 10° NNE 22:01:20 67° ESE 22:06:59 10° S
APEX 3.7 21:59:51 10° NNW 22:03:55 76° WSW 22:07:37 19° SSE
Cosmos 1464 Rocket 4.4 21:58:29 10° NNW 22:04:32 64° W 22:10:36 10° S
Timation 1 Rocket 4.3 21:58:58 10° NNW 22:05:02 84° ENE 22:09:17 20° SSE
Cosmos 1602 Rocket 3.6 22:01:55 10° S 22:06:24 88° W 22:10:54 10° N
Cosmos 1461 2.8 22:04:43 10° NNW 22:09:02 78° ENE 22:11:08 28° SE
PSLV R/B 3.6 22:09:29 22° S 22:11:15 57° W 22:14:19 10° NNW
Cosmos 1825 Rocket 4.4 22:10:25 26° SE 22:11:55 32° E 22:15:54 10° NNE
Cosmos 1812 Rocket 3.5 22:13:06 10° N 22:17:30 79° E 22:19:55 26° SSE
Cosmos 1816 Rocket 4.5 22:14:37 12° S 22:20:31 76° E 22:26:51 10° N
Cosmos 2034 Rocket 4.4 22:16:12 10° NNW 22:22:29 63° W 22:28:23 12° S
ATLAS 3B R/B 3.4 22:16:52 15° S 22:22:37 37° ESE 22:29:25 10° NE
Envisat 3.7 22:19:51 13° S 22:24:11 50° W 22:29:08 10° NNW
USA 245 4.3 22:20:30 23° SSE 22:24:33 78° ENE 22:29:59 10° N
Cosmos 1634 Rocket 4.3 22:18:46 10° N 22:24:46 51° E 22:27:54 27° SE
Cosmos 1943 3.6 22:23:34 25° SSE 22:26:17 42° ESE 22:31:36 10° NE
YAOGAN 6 2.6 22:24:55 36° SSE 22:26:22 88° E 22:30:08 10° N
Cosmos 407 Rocket 4.4 22:27:24 28° ESE 22:28:15 29° E 22:32:44 10° NE
H-2A R/B 4.2 22:26:47 10° SW 22:29:59 21° W 22:33:16 10° NW
USA 234 3.2 22:30:35 27° SE 22:34:29 81° SW 22:41:06 10° NW
USA 81 4.0 22:30:47 10° N 22:36:04 68° E 22:38:24 33° SSE
Abrixas rocket 3.0 22:33:08 10° WNW 22:36:23 39° SW 22:36:37 39° SSW
Cosmos 1943 Rocket 3.9 22:35:35 10° N 22:39:39 20° NE 22:42:15 15° E
Cosmos 1766 4.5 22:38:32 10° NNE 22:42:01 28° ENE 22:42:13 28° E
Cosmos 2279 Rocket 4.4 22:44:29 10° N 22:50:31 48° ENE 22:52:42 34° SE
CZ-4C R/B 3.4 22:51:16 51° SSE 22:52:19 84° E 22:56:29 10° NNW
PSLV R/B 3.6 22:52:25 10° WSW 22:55:24 60° SW 22:55:24 60° SW
SAR-Lupe-2 3.8 22:56:08 55° ENE 22:56:08 55° ENE 22:59:37 10° N
Cosmos 1953 Rocket 3.4 22:55:36 53° SSE 22:56:32 76° E 23:00:59 10° N
Atlas Centaur 2 3.4 22:51:01 10° WSW 22:58:26 40° S 23:00:56 33° SE
H-2A R/B 2.0 22:59:58 47° SE 23:01:12 63° ENE 23:06:11 10° N
CZ-4 R/B 4.5 22:58:13 10° N 23:03:06 57° WNW 23:06:34 19° SW
Cosmos 1992 Rocket 4.0 22:59:06 10° NNW 23:04:19 74° WSW 23:05:55 45° S
COSMOS 2455 3.3 23:01:13 10° SW 23:07:08 60° WNW 23:13:07 10° NNE
DELTA 2 DEB (DPAF) 4.3 23:07:16 48° SSW 23:08:21 65° WSW 23:12:50 10° NNW
Cosmos 2369 Rocket 2.1 23:05:52 10° NNW 23:11:35 87° ENE 23:13:08 50° SSE
ARGOS 3.8 23:10:54 30° SSW 23:13:12 49° W 23:18:30 10° NNW
IGS 5A 3.4 23:13:13 69° E 23:13:23 70° ENE 23:17:32 10° N
Cosmos 1953 3.4 23:10:23 10° NNE 23:13:33 32° ENE 23:13:33 32° ENE
Spot 4 3.8 23:14:25 57° ESE 23:15:06 66° ENE 23:19:51 10° N
DMSP B5D2-2 4.0 23:14:13 10° NNE 23:19:31 78° ESE 23:20:42 54° S
Landsat 7 4.0 23:18:56 49° SSW 23:19:58 62° WSW 23:24:42 10° NNW
Cosmos 1190 Rocket 4.1 23:17:39 33° SSW 23:20:05 74° WNW 23:25:26 10° NNE
Cosmos-2242 3.3 23:17:43 10° N 23:21:58 54° ENE 23:21:58 54° ENE
Meteor 1-22 Rocket 4.5 23:22:45 10° NNW 23:28:14 62° W 23:29:58 43° SSW
Spot 2 4.4 23:23:31 10° N 23:28:17 80° WNW 23:29:20 56° SSW
Lacrosse 4 Rocket 1.4 23:31:19 73° N 23:31:19 73° N 23:35:06 10° NNE
Cosmos 1758 Rocket 4.1 23:30:16 47° WSW 23:31:03 55° W 23:35:21 10° N
COSMOS 2406 3.9 23:32:43 36° E 23:32:43 36° E 23:37:24 10° NE
Cosmos 2263 4.1 23:27:26 10° NNW 23:33:04 87° WSW 23:34:04 62° SSE
CARTOSAT-1 3.9 23:34:42 55° WSW 23:34:54 55° W 23:39:10 10° NNW
Terra 2.0 23:35:13 57° SW 23:35:46 62° W 23:40:31 10° NNW
Cosmos 676 Rocket 3.9 23:35:11 59° SSW 23:36:15 88° WNW 23:41:38 10° NNE
Cosmos 1346 Rocket 4.1 23:38:36 31° W 23:39:14 33° WNW 23:42:49 10° N
Cosmos 1140 Rocket 3.6 23:49:34 58° E 23:49:34 58° E 23:54:23 10° NNE
Cosmos 1092 Rocket 4.1 23:52:56 55° ESE 23:53:44 60° E 23:59:55 10° NNE
